Weather History for Mountain Home, AR

Change the Weather History Date:

Tuesday, May 14, 2013

  Actual Average (KHRO) Record (KHRO)
Temperature  
Mean Temperature 76 °F 65 °F  
Max Temperature 91 °F 76 °F 96 °F (1911)
Min Temperature 61 °F 55 °F 34 °F (1910)
Degree Days  
Heating Degree Days 0 3  
Month to date heating degree days 49  
Since 1 July heating degree days 3970  
Cooling Degree Days 10 3  
Month to date cooling degree days 32  
Year to date cooling degree days 69  
Growing Degree Days 26 (Base 50)    
Moisture  
Dew Point 49 °F    
Average Humidity 43    
Maximum Humidity 64    
Minimum Humidity 21    
Precipitation  
Precipitation 0.00 in 0.16 in 2.64 in (1956)
Month to date precipitation 2.30  
Year to date precipitation 15.61  
Snow  
Snow 0.00 in 0.00 in - ()
Month to date snowfall 0.0  
Since 1 July snowfall 11.5  
Snow Depth -    
Sea Level Pressure  
Sea Level Pressure 29.99 in    
Wind  
Wind Speed 5 mph (SW)    
Max Wind Speed 10 mph    
Max Gust Speed 18 mph    
Visibility 10 miles    
Events      
T = Trace of Precipitation, MM = Missing Value Source: NWS Daily Summary

Daily Weather History Graph

Daily Weather History Graph

Search for Another Location

Airport:

Trip Planner

Search our weather history database for the weather conditions in past years. The results will help you decide how hot, cold, wet, or windy it might be!

Date:

Astronomy

May. 14, 2013 Rise Set
Actual Time 6:03 AM CDT 8:09 PM CDT
Civil Twilight 5:35 AM CDT 8:37 PM CDT
Nautical Twilight 5:00 AM CDT 9:12 PM CDT
Astronomical Twilight 4:22 AM CDT 9:50 PM CDT
Moon 9:43 AM CDT (5/14) 11:57 PM CDT (5/14)
Length of Visible Light 15h 02m
Length of Day
14h 05m
Waxing Crescent, 19% of the Moon is Illuminated
May 14
Waxing Crescent
May 17
First Quarter
May 24
Full
May 31
Last Quarter
Jun 8
New

Hourly Weather History & Observations

Time (CDT) Temp. Heat Index Dew Point Humidity Pressure Visibility Wind Dir Wind Speed Gust Speed Precip Events Conditions
12:53 AM 63.0 °F - 48.9 °F 60% 30.03 in 10.0 mi South 3.5 mph - N/A   Clear
1:53 AM 63.0 °F - 48.9 °F 60% 30.01 in 10.0 mi SSW 4.6 mph - N/A   Clear
2:53 AM 62.1 °F - 48.9 °F 62% 30.00 in 10.0 mi SSW 4.6 mph - N/A   Clear
3:53 AM 61.0 °F - 48.9 °F 64% 30.00 in 10.0 mi SSW 4.6 mph - N/A   Clear
4:53 AM 61.0 °F - 48.0 °F 62% 29.99 in 10.0 mi SSW 3.5 mph - N/A   Clear
5:53 AM 63.0 °F - 46.9 °F 56% 30.00 in 10.0 mi SW 3.5 mph - N/A   Clear
6:53 AM 63.0 °F - 48.0 °F 58% 30.01 in 10.0 mi WSW 3.5 mph - N/A   Clear
7:53 AM 68.0 °F - 48.9 °F 50% 30.02 in 10.0 mi SW 3.5 mph - N/A   Clear
8:53 AM 72.0 °F - 51.1 °F 48% 30.03 in 10.0 mi SW 5.8 mph - N/A   Clear
9:53 AM 75.9 °F - 52.0 °F 43% 30.02 in 9.0 mi WSW 5.8 mph - N/A   Clear
10:53 AM 82.0 °F 81.3 °F 54.0 °F 38% 30.03 in 9.0 mi Variable 5.8 mph - N/A   Clear
11:53 AM 86.0 °F - 48.9 °F 28% 30.02 in 9.0 mi West 8.1 mph - N/A   Clear
12:53 PM 88.0 °F - 46.0 °F 23% 30.00 in 9.0 mi West 8.1 mph 18.4 mph N/A   Clear
1:53 PM 89.1 °F - 46.0 °F 22% 29.98 in 10.0 mi West 9.2 mph - N/A   Clear
2:53 PM 90.0 °F - 46.0 °F 22% 29.97 in 10.0 mi West 8.1 mph - N/A   Clear
3:53 PM 90.0 °F - 45.0 °F 21% 29.95 in 10.0 mi West 9.2 mph - N/A   Clear
4:53 PM 89.1 °F - 46.0 °F 22% 29.94 in 10.0 mi WSW 9.2 mph - N/A   Clear
5:53 PM 87.1 °F - 48.0 °F 26% 29.94 in 10.0 mi SW 10.4 mph 18.4 mph N/A   Clear
6:53 PM 84.0 °F - 48.9 °F 29% 29.94 in 9.0 mi SSW 8.1 mph 17.3 mph N/A   Clear
7:53 PM 79.0 °F - 50.0 °F 36% 29.94 in 9.0 mi SW 5.8 mph - N/A   Clear
8:53 PM 75.9 °F - 51.1 °F 42% 29.95 in 10.0 mi SSW 4.6 mph - N/A   Clear
9:53 PM 72.0 °F - 52.0 °F 49% 29.96 in 10.0 mi SSW 6.9 mph - N/A   Clear
10:53 PM 73.0 °F - 53.1 °F 49% 29.96 in 10.0 mi SSW 6.9 mph - N/A   Clear
11:53 PM 71.1 °F - 54.0 °F 55% 29.97 in 10.0 mi SSW 6.9 mph - N/A   Clear